Overview Statistics Trail Chart Weather Telemetry Raw packets
 

This is the latest recevied weather packets stored in our database for station/object W8RSN-13. If no packets are shown the sender has not sent any weather packets the latest 10 day(s).

<< 31 32 33 34 35 36 37 >>
Time Temp. Humidity Pressure Rain* Wind** Luminosity Snow
1788467964 27.22° C 48% 1014.6 hPa - - - -
1788467663 27.22° C 47% 1014.5 hPa - - - -
1788467362 27.22° C 47% 1014.5 hPa - - - -
1788467074 27.22° C 48% 1014.6 hPa - - - -
1788466760 27.22° C 48% 1014.7 hPa - - - -
1788466459 27.22° C 48% 1014.8 hPa - - - -
1788466159 27.22° C 48% 1014.8 hPa - - - -
1788465858 26.67° C 49% 1014.7 hPa - - - -
1788465557 27.22° C 47% 1014.9 hPa - - - -
1788465256 27.22° C 47% 1015 hPa - - - -
1788464975 27.22° C 47% 1015.2 hPa - - - -
1788464674 26.67° C 46% 1015.2 hPa - - - -
1788464373 26.11° C 46% 1015.3 hPa - - - -
1788464072 26.11° C 44% 1015.4 hPa - - - -
1788463772 26.11° C 46% 1015.6 hPa - - - -
1788463471 26.11° C 45% 1015.6 hPa - - - -
1788463170 26.11° C 45% 1015.5 hPa - - - -
1788462869 26.11° C 46% 1015.6 hPa - - - -
1788462568 26.11° C 46% 1015.8 hPa - - - -
1788462267 26.11° C 45% 1016 hPa - - - -
1788461966 25.56° C 46% 1016 hPa - - - -
1788461665 25.56° C 46% 1016 hPa - - - -
1788461364 25.56° C 47% 1016.1 hPa - - - -
1788461064 25° C 48% 1016.1 hPa - - - -
1788460763 25° C 48% 1016.3 hPa - - - -

* Rain since midnight (hover to see other rain measurements)
** Current wind speed in m/s (hover to see current wind gust speed)